CUTE-1 (CO-55) 1 27844U 03031E 26121.46227727 .00000347 00000+0 16912-3 0 9996 2 27844 98.6752 130.6070 0008831 327.8386 32.2254 14.24306365185026 CUBESAT XI-IV (CO-57) 1 27848U 03031J 26121.00566327 .00000259 00000+0 13282-3 0 9991 2 27848 98.6788 129.9070 0009102 348.5967 11.5004 14.23594934184669 CUBESAT XI-V 1 28895U 05043F 26121.38168872 .00001682 00000+0 27279-3 0 9995 2 28895 98.2930 276.0386 0013904 359.4957 0.6233 14.72507657 94861 CUTE-1.7+APD II (CO-65) 1 32785U 08021C 26121.50657722 .00006078 00000+0 38822-3 0 9998 2 32785 97.8250 101.9787 0008928 176.7549 183.3738 15.09004228978151 CANX-2 1 32790U 08021H 26121.42884115 .00005706 00000+0 40320-3 0 9996 2 32790 97.8605 100.3186 0009939 194.8276 165.2660 15.05278032977770 SEEDS II (CO-66) 1 32791U 08021J 26121.43205317 .00025799 00000+0 85778-3 0 9999 2 32791 97.7524 117.1599 0005095 106.4082 253.7719 15.31151147980135 SWISSCUBE 1 35932U 09051B 26121.16438687 .00001246 00000+0 25621-3 0 9993 2 35932 98.4066 28.2309 0007070 10.5542 349.5806 14.62388925882283 BEESAT-1 1 35933U 09051C 26121.49187311 .00000986 00000+0 20814-3 0 9994 2 35933 98.3993 28.2965 0005843 25.3927 334.7560 14.61642278882362 ITUPSAT1 1 35935U 09051E 26121.44198973 .00000958 00000+0 20807-3 0 9998 2 35935 98.4079 27.4868 0008214 32.2271 327.9429 14.60368841881915 TISAT 1 1 36799U 10035E 26121.37919160 .00030559 00000+0 10540-2 0 9994 2 36799 98.0697 63.8538 0004371 73.0812 287.0905 15.29930195860542 AEROCUBE 4.5A 1 38767U 12048K 26121.53717697 .00173850 00000+0 11413-2 0 9998 2 38767 64.6319 194.4590 0022581 215.5916 144.3731 15.74619261365279 STRAND-1 1 39090U 13009E 26121.47860795 .00000327 00000+0 12430-3 0 9996 2 39090 98.3913 302.8650 0008934 18.7908 341.3607 14.37135332690356 BRITE-AUSTRIA 1 39091U 13009F 26121.47146933 .00000213 00000+0 87095-4 0 9992 2 39091 98.3984 302.0659 0010650 26.2077 333.9646 14.36523169690342 NEE-01 PEGASO 1 39151U 13018B 26121.36829735 .00002823 00000+0 27420-3 0 9999 2 39151 98.1153 263.9964 0011716 323.1056 36.9356 14.93430991703716 POPACS 2 1 39269U 13055E 26121.18933606 .00020349 00000+0 34869-3 0 9991 2 39269 80.9945 197.9463 0421082 344.9430 13.9547 14.90092570656215 POPACS 3 1 39270U 13055F 26120.68527627 .00011833 00000+0 28587-3 0 9997 2 39270 80.9998 280.6497 0555396 214.4690 141.9305 14.54934890631641 ZACUBE-1 (TSHEPISOSAT) 1 39417U 13066B 26121.34297200 .00007108 00000+0 55318-3 0 9999 2 39417 97.8126 83.4276 0043542 50.2188 310.2857 15.00807537673706 WNISAT-1 1 39423U 13066H 26121.40799525 .00000685 00000+0 13289-3 0 9994 2 39423 97.7140 273.9013 0163603 19.7532 340.9906 14.58006403659914 TRITON-1 1 39427U 13066M 26121.56111293 .00003767 00000+0 45402-3 0 9991 2 39427 97.8281 32.4320 0091183 27.2453 333.3500 14.81483947667185 GOMX-1 1 39430U 13066Q 26121.53836565 .00001872 00000+0 28797-3 0 9991 2 39430 97.6514 324.9407 0127749 226.9491 132.0963 14.69280005663065 CUBEBUG-2 (LO-74) 1 39440U 13066AA 26121.43473389 .00003592 00000+0 33659-3 0 9996 2 39440 97.8882 70.2387 0057790 180.9499 179.1620 14.93427587670019 NEE-02 KRYSAOR 1 39441U 13066AB 26121.29232089 .00002014 00000+0 22581-3 0 9991 2 39441 97.8874 60.8553 0065175 222.5944 137.0207 14.86450057669231 FUNCUBE-1 (AO-73) 1 39444U 13066AE 26121.44559731 .00012990 00000+0 81544-3 0 9995 2 39444 97.8253 91.9465 0036880 6.2751 353.8931 15.08853314672612 UWE-3 1 39446U 13066AG 26121.28734808 .00005946 00000+0 51306-3 0 9995 2 39446 97.8671 77.0710 0051130 115.1955 245.4580 14.96635540670560 BRITE-CA1 (TORONTO) 1 40020U 14033L 26121.35910044 .00001125 00000+0 17595-3 0 9993 2 40020 97.9667 251.1712 0079937 67.3231 293.6404 14.72609532635324 DUCHIFAT-1 1 40021U 14033M 26121.39647666 .00105088 00000+0 14537-2 0 9990 2 40021 98.0526 174.3066 0004768 217.2554 142.8369 15.56751210648450 NANOSATC-BR1 1 40024U 14033Q 26121.33382602 .00023597 00000+0 81420-3 0 9993 2 40024 98.0758 149.6191 0003140 19.2295 340.9061 15.29979398646816 QB50P1 1 40025U 14033R 26121.47685958 .00010840 00000+0 54321-3 0 9996 2 40025 98.0981 129.3727 0009648 36.5291 323.6597 15.17525558645949 QB50P2 1 40032U 14033Y 26121.53151816 .00009716 00000+0 53032-3 0 9990 2 40032 98.0747 115.5330 0006898 347.9477 12.1587 15.14553521645603 PERSEUS-M2 1 40037U 14033AD 26121.49284853 .00001739 00000+0 16280-3 0 9999 2 40037 97.9944 71.0981 0013616 92.8647 267.4131 14.95367256643800 PERSEUS-M1 1 40039U 14033AF 26121.26870557 .00002503 00000+0 23129-3 0 9998 2 40039 97.9625 64.6451 0013353 92.4930 267.7819 14.95476986643624 POLYITAN-1 1 40042U 14033AJ 26121.49481509 .00022119 00000+0 72474-3 0 9994 2 40042 98.0976 143.3945 0005639 321.0832 39.0000 15.31659342646447 TIGRISAT 1 40043U 14033AK 26121.35479618 .00003048 00000+0 35674-3 0 9999 2 40043 97.7768 272.4618 0048455 227.0942 132.6201 14.84961604638677 AEROCUBE 6A 1 40045U 14033AM 26121.46072409 .00009819 00000+0 83216-3 0 9997 2 40045 97.7179 288.9359 0039416 170.6149 189.5818 14.97564738639620 AEROCUBE 6B 1 40046U 14033AN 26121.44118441 .00009726 00000+0 79559-3 0 9995 2 40046 97.7174 288.6145 0037287 162.3859 197.8666 14.98998416639758 CANX-4 1 40055U 14034C 26121.54055251 .00001028 00000+0 13937-3 0 9991 2 40055 98.3184 355.1286 0013224 155.7562 204.4274 14.81178197637626 CANX-5 1 40056U 14034D 26121.53952340 .00001024 00000+0 13877-3 0 9995 2 40056 98.3188 355.1684 0013223 155.9500 204.2331 14.81195179628436 UKUBE-1 1 40074U 14037F 26121.21747719 .00012136 00000+0 69487-3 0 9999 2 40074 98.4239 119.5855 0001313 38.1062 322.0259 15.12805460641459 BRITE-PL2 (HEWELIUSZ) 1 40119U 14049B 26121.30503424 .00002540 00000+0 24100-3 0 9996 2 40119 97.9038 232.9641 0012762 264.0645 95.9121 14.94416112634446 AEROCUBE 5C 1 40965U 15058B 26121.22951083 .00004463 00000+0 39637-3 0 9992 2 40965 64.7692 48.6407 0129602 81.7027 279.8757 14.91177725358650 AEROCUBE 7 1 40966U 15058C 26121.35844047 .00006452 00000+0 51886-3 0 9998 2 40966 64.7646 31.4508 0119473 80.4187 281.0403 14.95347411358951 FOX-1A (AO-85) 1 40967U 15058D 26121.26169140 .00004716 00000+0 42437-3 0 9996 2 40967 64.7761 64.7792 0128635 74.9744 286.5563 14.90682726106573 SINOD-D 1 1 40968U 15058E 26121.20821347 .00006850 00000+0 55035-3 0 9994 2 40968 64.7770 45.9874 0117135 71.8592 289.5236 14.95518749109634 SNAP-3 ALICE 1 40970U 15058G 26121.36534782 .00121591 00000+0 19595-2 0 9998 2 40970 64.7540 264.6265 0031711 39.8124 320.5336 15.51727273109607 LMRST-SAT 1 40971U 15058H 26121.27227103 .00004558 00000+0 41293-3 0 9999 2 40971 64.7769 60.9963 0130475 76.9899 284.5743 14.90309864106568 SNAP-3 EDDIE 1 40972U 15058J 26121.51942054 .00099089 00000+0 15350-2 0 9993 2 40972 64.7458 255.1535 0032409 43.2074 317.1602 15.52884274111764 PROPCUBE 3 1 40973U 15058K 26121.48916604 .00005171 00000+0 43172-3 0 9995 2 40973 64.7708 38.3998 0122714 78.4728 283.0134 14.93924801107820 BISONSAT 1 40974U 15058L 26120.98893191 .00015728 00000+0 78085-3 0 9995 2 40974 64.7606 326.1199 0077966 68.3065 292.6337 15.15190991108461 SNAP-3 JIMI 1 40975U 15058M 26121.11729371 .00008240 00000+0 57178-3 0 9991 2 40975 64.7674 8.6417 0104793 74.8249 286.4429 15.01787670107156 PROPCUBE 1 (FLORA) 1 40976U 15058N 26121.31842535 .00004298 00000+0 40551-3 0 9998 2 40976 64.7746 80.4616 0129324 79.2561 282.3078 14.88949231109287 SINOD-D 3 1 40977U 15058P 26121.24483814 .00006290 00000+0 53173-3 0 9990 2 40977 64.7736 62.3614 0117801 76.8442 284.5784 14.93643660107742 HORYU-4 1 41340U 16012D 26121.09148188 .00175964 00000+0 11298-2 0 9997 2 41340 30.9896 58.4346 0006374 284.2293 75.7655 15.74589796563346 RAVAN 1 41849U 16067B 26121.18374573 .00059582 00000+0 10391-2 0 9990 2 41849 97.9952 5.4842 0006635 150.9489 209.2131 15.50502516520407 CELTEE 1 1 41850U 16067C 26121.05482433 .00005954 00000+0 28643-3 0 9997 2 41850 98.0735 344.4096 0002252 72.7718 287.3761 15.19212734518727 OPTICUBE 04 1 41851U 16067D 26121.54639465 .00002352 00000+0 15109-3 0 9993 2 41851 98.0745 331.3909 0014261 276.1301 83.8302 15.09460694518132 AEROCUBE 8D 1 41852U 16067E 26121.53994071 .00008988 00000+0 37712-3 0 9995 2 41852 98.0745 348.1724 0002133 315.0517 45.0545 15.23743616518965 AEROCUBE 8C 1 41853U 16067F 26121.04702634 .00009069 00000+0 37788-3 0 9998 2 41853 98.0617 344.9315 0004474 209.6349 150.4633 15.23969553518885 CORVUS BC2 1 42846U 17042X 26121.42321447 .00003761 00000+0 26177-3 0 9999 2 42846 97.4013 284.6143 0011611 272.0357 87.9541 15.05996151480024 CORVUS BC1 1 42847U 17042Y 26121.42312580 .00003305 00000+0 22962-3 0 9990 2 42847 97.4045 285.3973 0010610 245.3043 114.7080 15.06162396480059 MAKERSAT 0 1 43016U 17073D 26121.12471031 .00027572 00000+0 77738-3 0 9990 2 43016 97.4695 3.3349 0113581 80.5867 280.8192 15.30062751459267 SIRION PATHFINDER-2 1 43759U 18099B 26121.39854389 .00007008 00000+0 38772-3 0 9990 2 43759 97.4293 171.5736 0010577 101.5142 258.7278 15.14118511405543 CORVUS BC4 1 43767U 18099K 26121.54084060 .00005743 00000+0 33675-3 0 9998 2 43767 97.4106 165.8901 0009167 153.0891 207.0817 15.12112043405358 M2 PATHFINDER 1 45727U 20037E 26121.49276211 .00002361 00000+0 17318-3 0 9995 2 45727 97.8148 312.2028 0010668 315.4757 44.5610 15.04463866318471 NETSAT-4 1 46504U 20068U 26121.43404792 .00024915 00000+0 57889-3 0 9990 2 46504 97.8619 125.9764 0007509 119.9964 240.2028 15.42316951308562 NETSAT-3 1 46505U 20068V 26121.53331731 .00022296 00000+0 54029-3 0 9997 2 46505 97.8664 124.3616 0007075 132.4031 227.7814 15.41074426308497 NETSAT-1 1 46506U 20068W 26121.23593696 .00017942 00000+0 55583-3 0 9993 2 46506 97.8749 118.9102 0005855 152.5041 207.6510 15.33497202308109 NETSAT-2 1 46507U 20068X 26121.53187528 .00025723 00000+0 56452-3 0 9992 2 46507 97.8633 125.8222 0005570 138.0281 222.1394 15.44027660308539 GREENCUBE (IO-117) 1 53109U 22080E 26121.49337740 -.00000003 00000+0 00000+0 0 9991 2 53109 70.1455 314.4923 0008861 300.4355 59.5429 6.42583336 89068 SITRO-AIS 5 (KATYS) 1 57176U 23091L 26121.53580752 .00014709 00000+0 53354-3 0 9991 2 57176 97.5092 185.0238 0010021 264.7430 95.2666 15.28395481157213 SITRO-AIS 6 (CHIRKIN) 1 57192U 23091AC 26121.47595091 .00007118 00000+0 28665-3 0 9997 2 57192 97.5099 184.3224 0010278 269.7775 90.2285 15.25130459157161 SITRO-AIS 8 (ANOKHIN) 1 57193U 23091AD 26121.50072831 .00016383 00000+0 55015-3 0 9997 2 57193 97.5087 186.3947 0009220 259.9054 100.1147 15.30895917157306 SITRO-AIS 7 (FARTUSHNIY) 1 57194U 23091AE 26121.53551697 .00007149 00000+0 29038-3 0 9999 2 57194 97.5098 184.2303 0010132 270.8618 89.1459 15.24843820157169 SITRO-AIS 10 (BURDAEV) 1 57199U 23091AK 26121.52567258 .00022671 00000+0 62989-3 0 9992 2 57199 97.5107 191.0127 0006012 227.2419 132.8320 15.36869423157592 SITRO-AIS 9 (SHCHUKIN) 1 57201U 23091AM 26121.47289538 .00023259 00000+0 65543-3 0 9994 2 57201 97.5106 190.7236 0006242 228.7686 131.3020 15.36420787157574 SITRO-AIS 12 (SMIRENNIY) 1 57204U 23091AQ 26121.47219928 .00023748 00000+0 66319-3 0 9998 2 57204 97.5118 191.1614 0006058 221.4747 138.6038 15.36699781157591 SITRO-AIS 11 (SHEFFER) 1 57208U 23091AU 26121.49787441 .00022998 00000+0 63449-3 0 9991 2 57208 97.5115 191.4061 0005959 220.9998 139.0799 15.37086318157611 SITRO-AIS 25 1 59066U 24039R 26121.53854449 .00006438 00000+0 50100-3 0 9997 2 59066 95.3927 203.0435 0147291 130.7265 230.6861 14.93152907117767 SITRO-AIS 26 1 59067U 24039S 26121.53368142 .00006240 00000+0 48773-3 0 9992 2 59067 95.3929 202.9473 0147621 131.2544 230.1509 14.92959756117752 SITRO-AIS 27 1 59068U 24039T 26121.51685360 .00007412 00000+0 57352-3 0 9990 2 59068 95.3933 203.1858 0146911 129.9923 231.4308 14.93368246117776 SITRO-AIS 28 1 59071U 24039U 26121.49537565 .00007738 00000+0 59852-3 0 9992 2 59071 95.3926 203.2159 0146694 129.9715 231.4502 14.93400492117770 GRBBETA 1 60237U 24128C 26121.42432944 .00005180 00000+0 35715-3 0 9996 2 60237 61.9921 20.2855 0046521 124.8023 235.7461 15.06259875 99226 OOV-CUBE (TUBSAT-30) 1 60240U 24128F 26121.47437660 .00002792 00000+0 21924-3 0 9998 2 60240 61.9969 28.4286 0050038 123.4972 237.0916 15.02537975 99097 ROBUSTA-3A (MEDITERRAN*) 1 60243U 24128J 26121.42348593 .00011196 00000+0 66254-3 0 9995 2 60243 61.9884 13.5239 0047173 118.8353 241.7490 15.10945823 99358 LASARSAT 1 62391U 24247Q 26121.48462235 .00033994 00000+0 74516-3 0 9999 2 62391 44.9728 164.0607 0004965 29.9556 330.1616 15.43540954 76093 CROCUBE 1 62394U 24247T 26121.46879832 .00039098 00000+0 81267-3 0 9997 2 62394 44.9706 162.1621 0004740 28.5246 331.5902 15.45050548 76112 FORESAIL-1 PRIME 1 66778U 25276DS 26121.14334043 .00006098 00000+0 30085-3 0 9991 2 66778 97.4216 195.2871 0000796 264.1249 95.9894 15.18265636 23268 KNACKSAT-2 1 67683U 98067XZ 26121.39473065 .00052169 00000+0 73373-3 0 9997 2 67683 51.6293 169.1056 0012649 24.1266 336.0316 15.56061539 12982